| time (UTC) | temp F | wind direction | speed MPH | gust MPH | rain 1hr in | rain 24hr in | rain mn in | humidity % | barometer mb |
| 20260905001004 | 60 | 51 | 0.0 | 2.0 | 0.00 | 0.38 | 0.00 | 54 | 1019.3 |
| 20260905000504 | 60 | 49 | 0.0 | 2.0 | 0.00 | 0.38 | 0.00 | 55 | 1019.2 |
| 20260905000003 | 60 | 63 | 1.0 | 3.0 | 0.00 | 0.38 | 0.00 | 55 | 1019.3 |
| 20260904235504 | 60 | 70 | 0.0 | 2.0 | 0.00 | 0.38 | 0.00 | 53 | 1019.2 |
| 20260904235004 | 59 | 76 | 0.0 | 0.0 | 0.00 | 0.38 | 0.00 | 53 | 1019.2 |
| 20260904234504 | 59 | 71 | 0.0 | 0.0 | 0.00 | 0.38 | 0.00 | 53 | 1019.2 |
| 20260904234004 | 59 | 71 | 0.0 | 0.0 | 0.00 | 0.38 | 0.00 | 53 | 1019.2 |
| 20260904233504 | 59 | 76 | 1.0 | 3.0 | 0.00 | 0.38 | 0.00 | 52 | 1019.1 |
| 20260904233003 | 60 | 63 | 0.0 | 2.0 | 0.00 | 0.38 | 0.00 | 53 | 1019.1 |
| 20260904232504 | 61 | 40 | 1.0 | 10.0 | 0.00 | 0.38 | 0.00 | 51 | 1019.1 |
| 20260904231504 | 62 | 39 | 0.0 | 0.0 | 0.00 | 0.38 | 0.00 | 49 | 1019.1 |
| 20260904231004 | 62 | 39 | 0.0 | 0.0 | 0.00 | 0.38 | 0.00 | 49 | 1019.1 |
| 20260904230504 | 61 | 344 | 0.0 | 0.0 | 0.00 | 0.38 | 0.00 | 50 | 1019.1 |
| 20260904230004 | 61 | 33 | 0.0 | 0.0 | 0.00 | 0.38 | 0.00 | 50 | 1019.0 |
| 20260904225504 | 61 | 79 | 0.0 | 2.0 | 0.00 | 0.38 | 0.00 | 51 | 1019.1 |
| 20260904225004 | 61 | 81 | 0.0 | 1.0 | 0.00 | 0.38 | 0.00 | 51 | 1019.1 |
| 20260904224504 | 60 | 75 | 0.0 | 1.0 | 0.00 | 0.38 | 0.00 | 52 | 1019.2 |
| 20260904223504 | 62 | 79 | 0.0 | 0.0 | 0.00 | 0.38 | 0.00 | 50 | 1019.1 |
| 20260904223004 | 62 | 86 | 0.0 | 0.0 | 0.00 | 0.38 | 0.00 | 54 | 1019.2 |
| 20260904222504 | 61 | 70 | 0.0 | 0.0 | 0.00 | 0.38 | 0.00 | 51 | 1019.2 |
| 20260904222004 | 62 | 66 | 0.0 | 0.0 | 0.00 | 0.38 | 0.00 | 50 | 1019.1 |
| 20260904221504 | 63 | 77 | 0.0 | 1.0 | 0.00 | 0.38 | 0.00 | 49 | 1019.1 |
| 20260904220004 | 62 | 39 | 0.0 | 2.0 | 0.00 | 0.38 | 0.00 | 50 | 1019.0 |
| 20260904215004 | 62 | 62 | 0.0 | 1.0 | 0.00 | 0.38 | 0.00 | 53 | 1018.9 |
| 20260904214504 | 61 | 60 | 0.0 | 2.0 | 0.00 | 0.38 | 0.00 | 54 | 1019.0 |
| 20260904214004 | 61 | 47 | 0.0 | 0.0 | 0.00 | 0.38 | 0.00 | 54 | 1019.0 |
| 20260904213503 | 60 | 55 | 0.0 | 2.0 | 0.00 | 0.38 | 0.00 | 53 | 1019.1 |
| 20260904213005 | 60 | 35 | 0.0 | 1.0 | 0.00 | 0.38 | 0.00 | 56 | 1019.1 |
| 20260904212004 | 60 | 54 | 0.0 | 2.0 | 0.00 | 0.38 | 0.00 | 55 | 1018.9 |
| 20260904211503 | 60 | 72 | 0.0 | 0.0 | 0.00 | 0.38 | 0.00 | 57 | 1018.9 |
| 20260904211004 | 59 | 38 | 0.0 | 0.0 | 0.00 | 0.38 | 0.00 | 56 | 1018.9 |
| 20260904210004 | 59 | 90 | 0.0 | 1.0 | 0.00 | 0.38 | 0.00 | 54 | 1019.0 |
| 20260904205004 | 59 | 107 | 0.0 | 0.0 | 0.00 | 0.38 | 0.00 | 55 | 1019.0 |
| 20260904204503 | 58 | 120 | 0.0 | 0.0 | 0.00 | 0.38 | 0.00 | 54 | 1019.0 |
| 20260904204004 | 57 | 156 | 0.0 | 0.0 | 0.00 | 0.38 | 0.00 | 57 | 1019.1 |
| 20260904203503 | 58 | 176 | 0.0 | 2.0 | 0.00 | 0.38 | 0.00 | 53 | 1019.0 |
| 20260904202004 | 57 | 91 | 0.0 | 0.0 | 0.00 | 0.38 | 0.00 | 53 | 1018.9 |
| 20260904201004 | 58 | 88 | 0.0 | 0.0 | 0.00 | 0.38 | 0.00 | 56 | 1018.9 |
| 20260904200003 | 57 | 146 | 0.0 | 2.0 | 0.00 | 0.38 | 0.00 | 55 | 1019.0 |
| 20260904195505 | 57 | 109 | 0.0 | 3.0 | 0.00 | 0.38 | 0.00 | 57 | 1019.0 |
| 20260904195004 | 57 | 144 | 0.0 | 3.0 | 0.00 | 0.38 | 0.00 | 57 | 1019.0 |
| 20260904194504 | 57 | 132 | 0.0 | 1.0 | 0.00 | 0.38 | 0.00 | 60 | 1019.0 |
| 20260904194004 | 58 | 136 | 1.0 | 3.0 | 0.00 | 0.38 | 0.00 | 57 | 1019.0 |
| 20260904193503 | 58 | 171 | 0.0 | 3.0 | 0.00 | 0.38 | 0.00 | 56 | 1019.1 |
| 20260904193004 | 57 | 129 | 1.0 | 3.0 | 0.00 | 0.38 | 0.00 | 60 | 1019.1 |
| 20260904192504 | 57 | 128 | 0.0 | 3.0 | 0.00 | 0.38 | 0.00 | 60 | 1019.2 |
| 20260904192004 | 57 | 152 | 0.0 | 2.0 | 0.00 | 0.38 | 0.00 | 61 | 1019.2 |
| 20260904191504 | 56 | 158 | 0.0 | 3.0 | 0.00 | 0.38 | 0.00 | 62 | 1019.2 |
| 20260904190504 | 56 | 150 | 1.0 | 7.0 | 0.00 | 0.38 | 0.00 | 64 | 1019.2 |
| 20260904190004 | 55 | 132 | 0.0 | 2.0 | 0.00 | 0.38 | 0.00 | 64 | 1019.2 |
| 20260904185504 | 55 | 117 | 0.0 | 1.0 | 0.00 | 0.38 | 0.00 | 64 | 1019.2 |
| 20260904185004 | 55 | 205 | 0.0 | 0.0 | 0.00 | 0.38 | 0.00 | 62 | 1019.2 |
| 20260904184503 | 55 | 162 | 0.0 | 3.0 | 0.00 | 0.38 | 0.00 | 63 | 1019.2 |
| 20260904184004 | 54 | 72 | 0.0 | 0.0 | 0.00 | 0.38 | 0.00 | 66 | 1019.1 |
| 20260904183504 | 54 | 121 | 0.0 | 0.0 | 0.00 | 0.38 | 0.00 | 65 | 1019.2 |
| 20260904183004 | 54 | 95 | 0.0 | 0.0 | 0.00 | 0.38 | 0.00 | 66 | 1019.2 |
| 20260904182504 | 54 | 110 | 0.0 | 0.0 | 0.00 | 0.38 | 0.00 | 67 | 1019.2 |
| 20260904182004 | 54 | 108 | 0.0 | 1.0 | 0.00 | 0.38 | 0.00 | 67 | 1019.2 |
| 20260904181504 | 54 | 118 | 0.0 | 0.0 | 0.00 | 0.38 | 0.00 | 64 | 1019.2 |
| 20260904181005 | 54 | 130 | 0.0 | 0.0 | 0.00 | 0.38 | 0.00 | 64 | 1019.2 |
| 20260904180504 | 54 | 125 | 0.0 | 0.0 | 0.00 | 0.38 | 0.00 | 66 | 1019.2 |
| 20260904180004 | 55 | 126 | 0.0 | 0.0 | 0.00 | 0.38 | 0.00 | 62 | 1019.2 |
| 20260904175504 | 56 | 100 | 0.0 | 0.0 | 0.00 | 0.38 | 0.00 | 65 | 1019.1 |
| 20260904175004 | 57 | 73 | 0.0 | 0.0 | 0.00 | 0.38 | 0.00 | 61 | 1019.0 |
| 20260904174504 | 58 | 72 | 0.0 | 0.0 | 0.00 | 0.38 | 0.00 | 59 | 1019.1 |
| 20260904174004 | 59 | 71 | 0.0 | 0.0 | 0.00 | 0.38 | 0.00 | 58 | 1019.0 |
| 20260904173504 | 59 | 71 | 0.0 | 0.0 | 0.00 | 0.38 | 0.00 | 60 | 1019.0 |
| 20260904173004 | 59 | 107 | 0.0 | 0.0 | 0.00 | 0.38 | 0.00 | 60 | 1019.0 |
| 20260904172004 | 57 | 136 | 0.0 | 0.0 | 0.00 | 0.38 | 0.00 | 63 | 1019.0 |
| 20260904171504 | 56 | 141 | 0.0 | 0.0 | 0.00 | 0.38 | 0.00 | 65 | 1018.9 |
| 20260904171005 | 55 | 146 | 0.0 | 0.0 | 0.00 | 0.38 | 0.00 | 65 | 1019.0 |
| 20260904170504 | 56 | 119 | 0.0 | 0.0 | 0.00 | 0.38 | 0.00 | 63 | 1018.9 |
| 20260904165504 | 55 | 99 | 0.0 | 0.0 | 0.00 | 0.38 | 0.00 | 66 | 1018.9 |
| 20260904165004 | 55 | 345 | 0.0 | 0.0 | 0.00 | 0.38 | 0.00 | 63 | 1018.8 |
| 20260904164503 | 56 | 310 | 0.0 | 0.0 | 0.00 | 0.38 | 0.00 | 62 | 1018.8 |
| 20260904164004 | 57 | 288 | 0.0 | 0.0 | 0.00 | 0.38 | 0.00 | 64 | 1018.8 |
| 20260904163504 | 56 | 287 | 0.0 | 0.0 | 0.00 | 0.38 | 0.00 | 66 | 1018.8 |
| 20260904163004 | 54 | 284 | 0.0 | 0.0 | 0.00 | 0.38 | 0.00 | 69 | 1018.7 |
| 20260904162504 | 52 | 228 | 0.0 | 0.0 | 0.00 | 0.38 | 0.00 | 74 | 1018.7 |
| 20260904162004 | 52 | 227 | 0.0 | 0.0 | 0.00 | 0.38 | 0.00 | 70 | 1018.6 |
| 20260904161504 | 52 | 229 | 0.0 | 0.0 | 0.00 | 0.38 | 0.00 | 73 | 1018.6 |
| 20260904161004 | 51 | 228 | 0.0 | 0.0 | 0.00 | 0.38 | 0.00 | 73 | 1018.6 |
| 20260904155504 | 50 | 254 | 0.0 | 1.0 | 0.00 | 0.38 | 0.00 | 76 | 1018.5 |
| 20260904154505 | 50 | 250 | 0.0 | 0.0 | 0.00 | 0.38 | 0.00 | 78 | 1018.4 |
| 20260904154004 | 50 | 250 | 0.0 | 0.0 | 0.00 | 0.38 | 0.00 | 78 | 1018.4 |
| 20260904153504 | 49 | 250 | 0.0 | 0.0 | 0.00 | 0.38 | 0.00 | 78 | 1018.3 |
| 20260904153004 | 49 | 250 | 0.0 | 0.0 | 0.00 | 0.38 | 0.00 | 80 | 1018.4 |
| 20260904152504 | 48 | 251 | 0.0 | 0.0 | 0.00 | 0.39 | 0.00 | 81 | 1018.4 |
| 20260904152004 | 48 | 250 | 0.0 | 0.0 | 0.00 | 0.39 | 0.00 | 83 | 1018.3 |
| 20260904151504 | 47 | 250 | 0.0 | 0.0 | 0.00 | 0.39 | 0.00 | 84 | 1018.2 |
| 20260904151003 | 47 | 240 | 0.0 | 0.0 | 0.00 | 0.39 | 0.00 | 84 | 1018.1 |
| 20260904150504 | 46 | 244 | 0.0 | 0.0 | 0.00 | 0.39 | 0.00 | 85 | 1018.2 |
| 20260904150004 | 45 | 247 | 0.0 | 0.0 | 0.00 | 0.39 | 0.00 | 85 | 1018.1 |
| 20260904145004 | 44 | 239 | 0.0 | 0.0 | 0.00 | 0.40 | 0.00 | 87 | 1018.1 |
| 20260904144504 | 43 | 239 | 0.0 | 0.0 | 0.00 | 0.40 | 0.00 | 87 | 1018.1 |
| 20260904144003 | 43 | 238 | 0.0 | 0.0 | 0.00 | 0.40 | 0.00 | 87 | 1018.0 |
| 20260904143503 | 43 | 233 | 0.0 | 0.0 | 0.00 | 0.40 | 0.00 | 87 | 1017.9 |
| 20260904143004 | 43 | 227 | 0.0 | 0.0 | 0.00 | 0.40 | 0.00 | 87 | 1017.9 |
| 20260904142503 | 43 | 197 | 0.0 | 0.0 | 0.00 | 0.40 | 0.00 | 87 | 1017.8 |
| 20260904142004 | 43 | 197 | 0.0 | 0.0 | 0.00 | 0.40 | 0.00 | 87 | 1017.8 |
| 20260904141504 | 43 | 197 | 0.0 | 0.0 | 0.00 | 0.40 | 0.00 | 87 | 1017.7 |
| 20260904141004 | 43 | 197 | 0.0 | 0.0 | 0.00 | 0.40 | 0.00 | 87 | 1017.6 |
| 20260904140504 | 43 | 197 | 0.0 | 0.0 | 0.00 | 0.40 | 0.00 | 88 | 1017.4 |
| 20260904135004 | 42 | 196 | 0.0 | 0.0 | 0.00 | 0.40 | 0.00 | 89 | 1017.4 |
| 20260904134503 | 42 | 196 | 0.0 | 0.0 | 0.00 | 0.40 | 0.00 | 89 | 1017.3 |
| 20260904134004 | 42 | 182 | 0.0 | 0.0 | 0.00 | 0.40 | 0.00 | 90 | 1017.4 |
| 20260904133504 | 42 | 157 | 0.0 | 0.0 | 0.00 | 0.40 | 0.00 | 89 | 1017.3 |
| 20260904133004 | 43 | 157 | 0.0 | 0.0 | 0.00 | 0.40 | 0.00 | 89 | 1017.3 |
| 20260904132004 | 43 | 157 | 0.0 | 0.0 | 0.00 | 0.40 | 0.00 | 89 | 1017.0 |
| 20260904131504 | 43 | 157 | 0.0 | 0.0 | 0.00 | 0.40 | 0.00 | 89 | 1016.9 |
| 20260904130504 | 43 | 165 | 0.0 | 2.0 | 0.00 | 0.40 | 0.00 | 89 | 1017.0 |
| 20260904125504 | 43 | 202 | 0.0 | 0.0 | 0.00 | 0.40 | 0.00 | 90 | 1017.0 |
| 20260904125004 | 43 | 143 | 0.0 | 0.0 | 0.00 | 0.41 | 0.00 | 90 | 1017.0 |
| 20260904124504 | 43 | 141 | 0.0 | 0.0 | 0.00 | 0.41 | 0.00 | 90 | 1016.8 |
| 20260904124004 | 43 | 144 | 0.0 | 0.0 | 0.00 | 0.41 | 0.00 | 90 | 1016.8 |
| 20260904123504 | 43 | 155 | 0.0 | 0.0 | 0.00 | 0.41 | 0.00 | 91 | 1016.7 |
| 20260904122504 | 43 | 161 | 0.0 | 0.0 | 0.00 | 0.41 | 0.00 | 91 | 1016.7 |
| 20260904122003 | 43 | 171 | 0.0 | 0.0 | 0.00 | 0.41 | 0.00 | 90 | 1016.7 |
| 20260904121504 | 43 | 173 | 0.0 | 0.0 | 0.00 | 0.41 | 0.00 | 91 | 1016.7 |
| 20260904121004 | 43 | 173 | 0.0 | 0.0 | 0.00 | 0.41 | 0.00 | 91 | 1016.5 |
| 20260904120503 | 44 | 173 | 0.0 | 0.0 | 0.00 | 0.41 | 0.00 | 90 | 1016.4 |
| 20260904120004 | 44 | 173 | 0.0 | 0.0 | 0.00 | 0.41 | 0.00 | 90 | 1016.4 |
| 20260904115504 | 44 | 173 | 0.0 | 0.0 | 0.00 | 0.41 | 0.00 | 90 | 1016.4 |
| 20260904115004 | 44 | 173 | 0.0 | 0.0 | 0.00 | 0.41 | 0.00 | 90 | 1016.4 |
| 20260904114504 | 44 | 174 | 0.0 | 0.0 | 0.00 | 0.41 | 0.00 | 90 | 1016.3 |
| 20260904114004 | 44 | 174 | 0.0 | 0.0 | 0.00 | 0.41 | 0.00 | 90 | 1016.3 |
| 20260904113004 | 44 | 251 | 0.0 | 0.0 | 0.00 | 0.42 | 0.00 | 89 | 1016.1 |
| 20260904112504 | 44 | 251 | 0.0 | 0.0 | 0.00 | 0.42 | 0.00 | 89 | 1016.1 |
| 20260904112004 | 44 | 251 | 0.0 | 0.0 | 0.00 | 0.42 | 0.00 | 89 | 1016.1 |
| 20260904111504 | 44 | 251 | 0.0 | 0.0 | 0.00 | 0.42 | 0.00 | 89 | 1016.1 |
| 20260904111004 | 44 | 251 | 0.0 | 0.0 | 0.00 | 0.42 | 0.00 | 89 | 1016.2 |
| 20260904110504 | 44 | 252 | 0.0 | 0.0 | 0.00 | 0.42 | 0.00 | 90 | 1016.0 |
| 20260904110004 | 44 | 241 | 0.0 | 0.0 | 0.00 | 0.42 | 0.00 | 90 | 1016.1 |
| 20260904105004 | 44 | 253 | 0.0 | 2.0 | 0.00 | 0.42 | 0.00 | 90 | 1015.9 |
| 20260904104504 | 44 | 243 | 0.0 | 1.0 | 0.00 | 0.42 | 0.00 | 91 | 1015.8 |
| 20260904104003 | 44 | 282 | 0.0 | 0.0 | 0.00 | 0.42 | 0.00 | 91 | 1015.9 |
| 20260904103504 | 44 | 278 | 0.0 | 0.0 | 0.00 | 0.42 | 0.00 | 92 | 1015.9 |
| 20260904103003 | 44 | 256 | 0.0 | 0.0 | 0.00 | 0.42 | 0.00 | 91 | 1015.7 |
| 20260904102504 | 44 | 252 | 0.0 | 0.0 | 0.00 | 0.42 | 0.00 | 92 | 1015.6 |
| 20260904102004 | 44 | 252 | 0.0 | 1.0 | 0.00 | 0.42 | 0.00 | 92 | 1015.6 |
| 20260904101504 | 44 | 270 | 0.0 | 0.0 | 0.00 | 0.42 | 0.00 | 92 | 1015.5 |
| 20260904100004 | 44 | 263 | 0.0 | 0.0 | 0.00 | 0.42 | 0.00 | 92 | 1015.4 |
| 20260904095004 | 44 | 248 | 0.0 | 0.0 | 0.00 | 0.42 | 0.00 | 92 | 1015.4 |
| 20260904093503 | 44 | 222 | 0.0 | 0.0 | 0.00 | 0.43 | 0.00 | 92 | 1015.1 |
| 20260904092004 | 44 | 222 | 0.0 | 2.0 | 0.00 | 0.44 | 0.00 | 93 | 1015.3 |
| 20260904091504 | 44 | 241 | 0.0 | 1.0 | 0.00 | 0.45 | 0.00 | 93 | 1015.2 |
| 20260904090504 | 43 | 216 | 0.0 | 3.0 | 0.00 | 0.45 | 0.00 | 93 | 1015.4 |
| 20260904090004 | 44 | 225 | 0.0 | 3.0 | 0.00 | 0.45 | 0.00 | 93 | 1015.4 |
| 20260904085504 | 44 | 234 | 0.0 | 1.0 | 0.00 | 0.45 | 0.00 | 93 | 1015.4 |
| 20260904085004 | 44 | 255 | 0.0 | 0.0 | 0.00 | 0.46 | 0.00 | 93 | 1015.2 |
| 20260904084504 | 44 | 252 | 0.0 | 0.0 | 0.00 | 0.46 | 0.00 | 93 | 1015.2 |
| 20260904084004 | 44 | 251 | 0.0 | 1.0 | 0.00 | 0.47 | 0.00 | 93 | 1015.2 |
| 20260904083504 | 44 | 252 | 0.0 | 1.0 | 0.00 | 0.47 | 0.00 | 93 | 1015.3 |
| 20260904083004 | 44 | 240 | 0.0 | 1.0 | 0.00 | 0.48 | 0.00 | 93 | 1015.3 |
| 20260904082504 | 44 | 231 | 0.0 | 2.0 | 0.00 | 0.48 | 0.00 | 93 | 1015.2 |
| 20260904082004 | 44 | 237 | 0.0 | 2.0 | 0.00 | 0.50 | 0.00 | 93 | 1015.2 |
| 20260904081504 | 44 | 249 | 1.0 | 2.0 | 0.00 | 0.51 | 0.00 | 93 | 1015.1 |
| 20260904081005 | 44 | 245 | 0.0 | 1.0 | 0.00 | 0.52 | 0.00 | 92 | 1015.0 |
| 20260904080004 | 44 | 244 | 0.0 | 0.0 | 0.00 | 0.55 | 0.00 | 92 | 1015.0 |
| 20260904074504 | 44 | 240 | 0.0 | 0.0 | 0.02 | 0.59 | 0.00 | 91 | 1015.1 |
| 20260904074004 | 44 | 249 | 0.0 | 0.0 | 0.03 | 0.60 | 0.00 | 91 | 1015.1 |
| 20260904073504 | 44 | 231 | 0.0 | 1.0 | 0.04 | 0.62 | 0.00 | 91 | 1015.1 |
| 20260904073004 | 44 | 234 | 0.0 | 1.0 | 0.06 | 0.62 | 0.00 | 91 | 1015.2 |
| 20260904072504 | 44 | 239 | 0.0 | 1.0 | 0.08 | 0.63 | 0.00 | 91 | 1015.1 |
| 20260904072004 | 44 | 228 | 0.0 | 0.0 | 0.09 | 0.64 | 0.00 | 91 | 1015.0 |
| 20260904071504 | 44 | 242 | 0.0 | 1.0 | 0.09 | 0.64 | 0.00 | 92 | 1015.1 |
| 20260904071004 | 44 | 235 | 0.0 | 1.0 | 0.09 | 0.64 | 0.00 | 92 | 1015.1 |
| 20260904065504 | 44 | 257 | 0.0 | 0.0 | 0.11 | 0.65 | 0.65 | 92 | 1015.0 |
| 20260904065004 | 44 | 261 | 0.0 | 0.0 | 0.11 | 0.64 | 0.64 | 92 | 1015.0 |
| 20260904064504 | 44 | 272 | 0.0 | 1.0 | 0.10 | 0.64 | 0.63 | 92 | 1015.0 |
| 20260904064004 | 44 | 266 | 0.0 | 1.0 | 0.10 | 0.63 | 0.62 | 92 | 1015.1 |
| 20260904063004 | 44 | 273 | 0.0 | 3.0 | 0.09 | 0.60 | 0.59 | 91 | 1014.9 |
| 20260904062504 | 44 | 274 | 0.0 | 0.0 | 0.09 | 0.59 | 0.58 | 92 | 1014.9 |
| 20260904062004 | 44 | 278 | 0.0 | 1.0 | 0.08 | 0.58 | 0.57 | 91 | 1014.9 |
| 20260904061004 | 44 | 275 | 0.0 | 3.0 | 0.09 | 0.57 | 0.56 | 91 | 1014.9 |
| 20260904060505 | 44 | 276 | 0.0 | 2.0 | 0.08 | 0.56 | 0.55 | 91 | 1014.7 |
| 20260904060004 | 44 | 287 | 0.0 | 1.0 | 0.07 | 0.55 | 0.54 | 91 | 1014.7 |
| 20260904055505 | 44 | 288 | 0.0 | 2.0 | 0.08 | 0.55 | 0.54 | 91 | 1014.5 |
| 20260904055004 | 44 | 288 | 1.0 | 6.0 | 0.08 | 0.54 | 0.53 | 91 | 1014.9 |
| 20260904054504 | 44 | 283 | 2.0 | 6.0 | 0.08 | 0.54 | 0.53 | 91 | 1015.1 |
| 20260904054004 | 45 | 286 | 3.0 | 10.0 | 0.08 | 0.53 | 0.52 | 91 | 1015.1 |
| 20260904053504 | 45 | 272 | 2.0 | 7.0 | 0.08 | 0.52 | 0.51 | 91 | 1015.0 |
| 20260904052503 | 45 | 285 | 2.0 | 9.0 | 0.06 | 0.50 | 0.49 | 92 | 1014.9 |
| 20260904052004 | 45 | 287 | 1.0 | 3.0 | 0.07 | 0.50 | 0.49 | 92 | 1014.8 |
| 20260904051504 | 45 | 292 | 1.0 | 7.0 | 0.06 | 0.49 | 0.48 | 92 | 1014.7 |
| 20260904051005 | 45 | 299 | 1.0 | 6.0 | 0.06 | 0.48 | 0.47 | 92 | 1014.6 |
| 20260904050004 | 45 | 310 | 1.0 | 3.0 | 0.06 | 0.48 | 0.47 | 92 | 1014.7 |
| 20260904045504 | 45 | 302 | 0.0 | 2.0 | 0.06 | 0.47 | 0.46 | 92 | 1014.7 |
| 20260904045004 | 45 | 295 | 1.0 | 5.0 | 0.06 | 0.46 | 0.45 | 92 | 1014.8 |
| 20260904044504 | 45 | 293 | 1.0 | 5.0 | 0.06 | 0.46 | 0.45 | 92 | 1014.8 |
| 20260904044004 | 45 | 297 | 1.0 | 2.0 | 0.05 | 0.45 | 0.44 | 92 | 1014.9 |
| 20260904043503 | 45 | 292 | 0.0 | 2.0 | 0.04 | 0.44 | 0.43 | 92 | 1014.9 |
| 20260904042504 | 46 | 317 | 0.0 | 0.0 | 0.05 | 0.44 | 0.43 | 91 | 1014.9 |
| 20260904042004 | 46 | 311 | 0.0 | 0.0 | 0.04 | 0.43 | 0.42 | 91 | 1014.9 |
| 20260904041503 | 46 | 324 | 0.0 | 1.0 | 0.04 | 0.43 | 0.42 | 91 | 1014.9 |
| 20260904041003 | 46 | 313 | 0.0 | 0.0 | 0.04 | 0.42 | 0.41 | 90 | 1015.0 |
| 20260904040504 | 46 | 314 | 0.0 | 1.0 | 0.04 | 0.42 | 0.41 | 90 | 1015.0 |
| 20260904040004 | 46 | 316 | 0.0 | 1.0 | 0.04 | 0.42 | 0.41 | 90 | 1015.1 |
| 20260904035004 | 46 | 311 | 0.0 | 0.0 | 0.04 | 0.40 | 0.39 | 90 | 1015.4 |
| 20260904034504 | 46 | 309 | 0.0 | 0.0 | 0.04 | 0.40 | 0.39 | 90 | 1015.2 |
| 20260904034004 | 47 | 296 | 0.0 | 1.0 | 0.04 | 0.40 | 0.39 | 89 | 1015.0 |
| 20260904033504 | 47 | 296 | 0.0 | 1.0 | 0.05 | 0.40 | 0.39 | 89 | 1015.0 |
| 20260904033005 | 47 | 297 | 0.0 | 2.0 | 0.04 | 0.39 | 0.38 | 89 | 1014.9 |
| 20260904032504 | 47 | 286 | 0.0 | 2.0 | 0.04 | 0.39 | 0.38 | 89 | 1014.9 |
| 20260904031504 | 47 | 283 | 0.0 | 3.0 | 0.05 | 0.39 | 0.38 | 89 | 1015.0 |
| 20260904031004 | 48 | 276 | 0.0 | 2.0 | 0.04 | 0.38 | 0.37 | 89 | 1015.1 |
| 20260904030504 | 48 | 288 | 0.0 | 2.0 | 0.05 | 0.38 | 0.37 | 88 | 1015.0 |
| 20260904030004 | 48 | 274 | 1.0 | 2.0 | 0.05 | 0.38 | 0.37 | 88 | 1015.0 |
| 20260904025504 | 48 | 279 | 0.0 | 3.0 | 0.04 | 0.37 | 0.36 | 88 | 1015.0 |
| 20260904025004 | 49 | 288 | 0.0 | 3.0 | 0.03 | 0.36 | 0.35 | 89 | 1015.0 |
| 20260904024004 | 49 | 262 | 0.0 | 0.0 | 0.04 | 0.36 | 0.35 | 90 | 1015.1 |
| 20260904023504 | 49 | 271 | 0.0 | 0.0 | 0.04 | 0.35 | 0.34 | 90 | 1015.0 |
| 20260904023004 | 49 | 253 | 0.0 | 0.0 | 0.04 | 0.35 | 0.34 | 90 | 1014.9 |
| 20260904022504 | 49 | 248 | 0.0 | 0.0 | 0.04 | 0.35 | 0.34 | 89 | 1014.8 |
| 20260904021004 | 50 | 246 | 0.0 | 0.0 | 0.04 | 0.34 | 0.33 | 88 | 1015.1 |
| 20260904020504 | 50 | 234 | 0.0 | 0.0 | 0.03 | 0.33 | 0.32 | 88 | 1015.1 |
| 20260904020004 | 50 | 224 | 0.0 | 0.0 | 0.03 | 0.33 | 0.32 | 87 | 1015.0 |
| 20260904015004 | 50 | 252 | 0.0 | 0.0 | 0.03 | 0.33 | 0.32 | 86 | 1014.8 |
| 20260904014004 | 51 | 236 | 0.0 | 0.0 | 0.03 | 0.32 | 0.31 | 85 | 1014.9 |
| 20260904013504 | 51 | 226 | 0.0 | 0.0 | 0.02 | 0.31 | 0.30 | 84 | 1015.0 |
| 20260904012503 | 52 | 226 | 0.0 | 0.0 | 0.03 | 0.31 | 0.30 | 82 | 1014.8 |
| 20260904012004 | 52 | 226 | 0.0 | 0.0 | 0.03 | 0.31 | 0.30 | 82 | 1014.9 |
| 20260904011504 | 52 | 226 | 0.0 | 0.0 | 0.02 | 0.30 | 0.29 | 81 | 1015.0 |
| 20260904011004 | 52 | 226 | 0.0 | 0.0 | 0.02 | 0.30 | 0.29 | 80 | 1015.0 |
| 20260904010504 | 52 | 226 | 0.0 | 0.0 | 0.02 | 0.30 | 0.29 | 79 | 1015.1 |
| 20260904010004 | 53 | 226 | 0.0 | 0.0 | 0.02 | 0.30 | 0.29 | 80 | 1015.1 |
| 20260904005504 | 53 | 226 | 0.0 | 0.0 | 0.02 | 0.30 | 0.29 | 81 | 1015.2 |
| 20260904004503 | 53 | 226 | 0.0 | 0.0 | 0.01 | 0.29 | 0.28 | 79 | 1015.2 |
| 20260904004004 | 53 | 293 | 0.0 | 0.0 | 0.01 | 0.29 | 0.28 | 78 | 1015.1 |
| 20260904003004 | 53 | 90 | 0.0 | 1.0 | 0.01 | 0.29 | 0.28 | 83 | 1015.2 |
| 20260904002004 | 53 | 91 | 0.0 | 2.0 | 0.00 | 0.28 | 0.27 | 82 | 1015.4 |